Theta_e
300 300 300 300 301 301 301 301 301 301 302 303 302 302 302 303 303 303 305 313 315 313 314 313 311 314 317 320 322 322 323 327 326 326 325 326 324 326 326 324 324 325 329 337 339
300 300 300 300 301 301 302 302 301 302 303 304 304 303 304 304 304 304 310 313 314 313 311 311 314 314 315 318 322 320 322 325 327 327 326 326 327 327 326 324 324 325 332 333 335
300 300 300 301 301 301 302 302 302 302 303 303 304 304 304 305 316 317 315 313 312 307 307 307 313 314 315 316 319 323 323 325 327 328 328 327 327 328 326 325 326 325 326 331 332
299 300 300 300 301 301 301 302 302 303 303 303 303 304 305 309 319 317 309 309 308 310 312 312 312 313 314 314 317 317 323 325 326 327 327 326 327 327 328 326 326 326 326 326 328
298 299 299 300 300 301 301 302 303 303 303 303 303 304 308 320 318 310 310 312 314 314 313 313 313 312 312 315 316 316 317 318 321 325 327 327 327 327 327 328 328 328 327 328 327
298 298 299 299 300 301 301 301 303 305 306 304 304 305 311 319 312 312 312 313 313 313 313 313 313 313 313 312 311 314 315 317 319 318 320 325 327 327 328 328 328 329 328 328 328
305 301 298 299 300 301 301 301 303 306 305 304 305 306 311 314 312 311 312 312 312 312 313 313 313 313 313 311 314 313 311 313 316 318 318 320 320 324 327 327 327 328 329 328 328
307 306 299 300 301 302 301 301 303 309 306 305 306 307 317 312 311 311 310 310 311 312 312 312 312 312 312 312 312 311 311 311 314 316 318 318 318 319 322 326 327 327 328 328 328
306 307 300 304 305 304 302 301 303 311 305 305 309 315 320 312 312 310 309 310 311 311 311 311 312 312 312 310 309 311 310 310 312 312 313 315 318 319 320 321 326 327 327 328 327
304 307 303 305 305 304 302 308 311 314 310 316 312 316 315 313 311 309 310 311 311 312 313 313 312 310 309 310 310 311 310 311 312 312 312 311 313 315 318 320 321 324 327 327 327
303 306 305 304 305 307 313 315 314 318 315 319 318 316 313 311 310 310 311 311 312 313 312 313 311 311 311 311 313 313 313 313 314 315 313 313 313 314 315 315 315 320 322 327 327
304 306 306 306 304 311 314 313 312 312 312 312 313 312 311 310 310 312 311 311 311 310 310 310 310 312 313 314 313 313 312 312 313 314 313 313 313 313 314 314 315 316 319 323 327
304 307 307 310 311 312 313 313 312 312 312 313 313 311 311 311 311 311 311 310 311 310 310 310 312 313 313 312 313 312 312 312 312 313 313 313 312 313 313 314 315 316 317 320 325
304 308 305 308 312 313 314 313 313 312 312 314 311 311 311 310 311 312 311 311 311 310 310 310 311 313 312 313 313 313 314 315 314 312 311 312 312 311 312 313 313 315 317 318 320
303 308 305 312 313 314 312 312 313 313 323 314 312 311 311 310 312 312 311 311 310 310 310 309 309 311 312 312 315 315 314 314 314 312 309 310 309 310 311 312 313 313 315 316 320
304 308 306 313 313 312 311 311 314 318 322 312 312 312 311 312 312 312 311 311 311 310 310 309 311 313 314 314 314 313 313 313 311 309 310 310 310 311 310 311 312 313 314 315 317
307 304 305 311 312 312 311 314 316 321 315 314 313 312 311 312 312 312 311 310 310 311 310 310 310 314 314 313 312 311 312 314 314 312 312 311 311 311 312 313 314 314 315 315 316
310 311 308 307 312 311 312 314 320 319 314 313 312 312 312 313 312 312 311 311 312 310 309 310 310 310 314 313 311 312 313 316 316 312 311 313 313 312 313 313 314 314 315 316 317
307 315 316 316 312 308 312 315 319 313 312 312 313 313 313 313 313 312 311 311 312 310 311 310 312 311 311 311 310 310 310 310 311 311 312 312 312 313 315 317 317 316 316 316 315
314 316 315 314 310 313 313 317 314 312 312 312 313 313 312 312 312 311 311 313 312 311 310 311 310 310 310 311 311 311 310 311 312 314 315 312 312 313 317 317 315 315 314 314 316
314 316 316 312 311 314 315 313 311 310 310 312 313 312 312 312 311 311 312 312 313 311 311 310 311 312 310 310 311 312 311 314 315 316 317 315 313 318 316 315 315 314 314 315 317
313 315 313 312 313 317 314 313 313 311 311 313 312 312 312 312 312 312 312 313 312 312 312 311 310 310 311 310 312 314 314 313 316 316 315 315 315 316 314 313 314 313 313 316 319
312 314 313 313 313 313 314 313 313 312 312 311 312 312 311 310 312 313 313 312 313 313 313 312 310 312 310 310 311 312 312 311 311 311 314 316 314 313 314 313 314 314 315 315 318
313 313 314 312 311 312 311 312 313 312 312 312 312 312 312 312 311 312 312 312 312 312 313 312 311 312 312 312 311 312 312 311 311 313 313 314 313 315 315 314 314 312 313 314 314
309 311 309 310 310 311 312 312 313 314 312 311 311 311 310 312 311 310 310 311 311 311 313 312 313 313 313 312 312 312 312 312 313 312 314 315 315 315 314 313 314 313 313 314 314
307 308 307 307 311 312 312 312 311 311 310 311 310 311 310 310 310 311 310 310 312 312 312 312 314 313 314 312 313 313 313 313 313 313 313 313 315 314 314 315 314 314 316 316 315
306 306 307 308 310 309 309 309 311 309 310 310 310 309 309 310 311 311 310 310 310 310 310 313 314 312 312 312 313 313 316 315 314 313 313 313 313 312 313 314 315 315 316 321 321
Wind_Speed
15 15 15 15 15 15 14 13 12 11 10 11 11 12 13 14 13 12 11 9 10 13 11 8 8 10 9 14 17 16 3 11 14 13 13 24 10 21 22 14 23 18 13 9 18
16 16 16 16 16 16 15 14 11 10 11 11 11 11 14 17 15 9 9 9 12 15 15 8 8 9 13 12 11 8 4 11 12 14 15 17 20 23 14 18 23 26 1 4 6
17 17 16 16 16 16 15 15 13 11 12 12 12 14 16 16 6 4 1 5 8 7 7 11 6 11 13 17 22 8 14 12 19 28 27 21 20 26 7 10 22 18 28 10 11
18 17 18 17 17 17 16 15 14 13 13 13 14 15 14 6 4 3 4 6 2 2 5 1 7 15 4 7 17 15 24 24 25 32 33 22 28 22 22 17 31 31 30 30 22
20 20 19 18 18 17 16 16 15 14 14 13 13 13 7 5 5 1 5 6 6 4 7 10 12 14 9 9 21 19 17 25 28 32 33 35 26 20 28 25 26 33 30 29 31
21 21 20 20 19 18 16 15 14 15 15 12 11 9 4 5 2 4 8 7 6 5 7 5 7 13 9 10 7 15 20 20 27 29 28 21 23 28 34 31 27 32 30 31 25
21 22 21 21 19 18 16 14 13 15 12 8 6 7 6 10 2 3 5 6 5 6 5 7 10 9 14 9 13 20 9 15 17 19 20 17 15 24 36 35 33 26 32 32 30
26 25 22 21 19 17 15 12 11 11 9 5 5 4 6 1 6 2 4 7 8 6 8 10 8 7 11 12 13 7 7 6 2 8 18 15 23 24 25 30 33 33 31 37 36
26 27 25 21 17 15 12 10 9 9 2 6 2 3 8 4 1 3 4 7 7 9 11 9 6 7 11 5 6 5 8 11 17 9 11 9 20 25 33 29 24 31 33 35 41
26 27 24 22 15 11 8 10 7 6 4 6 6 7 8 4 3 5 3 5 8 8 12 16 10 5 4 3 4 7 9 11 15 5 8 11 18 19 22 31 32 29 34 36 38
23 25 23 17 10 6 8 6 7 2 5 10 12 11 13 2 6 4 3 7 11 9 5 10 3 5 11 10 8 8 13 14 15 13 15 13 15 21 18 24 22 33 33 33 41
22 22 16 11 7 5 9 11 11 11 10 15 21 15 8 5 5 5 5 3 8 6 9 6 6 8 9 9 8 8 14 16 14 10 14 12 19 20 18 19 27 30 31 35 41
21 19 10 7 7 4 5 7 12 12 5 10 8 6 7 8 9 11 2 5 6 6 8 6 10 12 13 12 13 8 8 12 15 12 15 10 16 23 25 23 27 34 34 33 39
21 17 8 9 5 11 7 9 11 14 2 7 6 4 4 5 7 3 4 3 3 5 6 6 9 12 9 13 13 12 12 17 15 9 10 6 15 11 18 25 21 28 33 34 35
21 15 2 7 7 10 13 12 14 1 2 7 7 8 5 6 8 5 10 6 8 9 5 9 12 7 7 10 10 13 18 20 20 13 5 7 8 17 9 19 22 21 32 39 37
19 13 1 3 7 14 15 10 8 1 2 4 7 5 5 7 11 1 5 11 19 10 10 12 20 4 3 6 9 14 11 17 12 3 10 12 11 18 16 17 21 23 34 40 41
15 7 1 1 7 15 13 12 1 1 4 7 6 9 8 12 4 3 2 6 6 4 5 7 9 3 4 2 5 6 6 4 4 3 9 11 12 15 13 14 19 20 33 34 42
8 9 3 1 7 14 12 3 2 9 11 11 11 12 13 9 2 2 8 7 3 6 3 3 6 10 3 4 5 4 4 5 5 6 11 9 6 12 15 17 26 34 33 35 39
6 4 4 5 8 14 5 2 3 6 10 11 12 9 9 8 4 8 8 5 7 12 5 5 5 13 15 14 14 7 6 10 7 11 3 5 11 12 15 14 21 28 36 42 41
8 3 3 6 13 7 1 4 3 11 9 8 6 10 11 12 10 8 8 8 7 11 8 4 15 7 13 15 11 5 8 6 4 5 6 6 13 6 14 18 21 23 32 45 41
5 1 4 15 6 4 1 4 7 17 8 5 9 8 9 8 10 10 6 11 12 9 9 6 2 8 10 4 9 7 5 3 3 3 2 5 2 2 9 7 13 18 34 40 42
6 1 4 5 1 6 4 9 13 9 11 8 2 4 6 10 7 8 8 8 10 10 4 5 3 5 16 16 12 6 8 3 2 2 4 4 8 7 8 6 11 20 36 37 37
10 4 2 4 2 3 7 12 17 3 2 5 6 7 7 6 5 5 9 13 11 6 5 2 4 5 6 2 0 1 5 6 4 4 5 7 6 7 7 10 13 14 29 37 36
7 4 5 6 14 6 7 8 13 16 10 5 4 8 7 6 2 4 8 9 8 12 6 2 4 6 7 13 11 17 18 15 7 3 7 11 19 14 7 8 11 24 27 34 42
9 5 6 4 5 12 8 8 12 10 12 16 7 11 12 6 7 7 9 11 16 14 4 3 5 9 14 18 20 20 18 17 17 13 8 8 12 9 2 2 4 12 23 28 39
6 7 8 15 15 9 11 6 10 10 8 7 9 9 12 8 7 12 9 4 6 6 3 5 4 6 13 19 17 19 17 15 14 10 7 11 10 11 7 3 10 13 22 32 37
11 7 7 8 7 6 5 11 13 12 10 9 10 12 9 14 21 19 23 21 14 13 13 7 4 1 6 12 17 9 4 6 7 9 10 10 6 11 12 11 13 19 23 26 27
Wind_Direction
352 348 345 342 339 337 337 333 329 327 325 325 322 315 312 307 293 271 255 268 271 265 275 277 261 239 221 244 245 257 221 243 245 251 277 300 326 321 303 313 318 312 338 118 112
350 347 344 340 338 335 335 335 331 327 326 328 326 317 319 319 312 271 253 260 262 280 278 269 271 270 234 236 223 211 212 235 253 258 265 278 304 308 335 322 310 308 131 149 163
347 345 343 339 334 332 331 332 330 325 320 320 319 317 321 325 334 293 217 269 281 312 290 238 264 290 280 253 229 224 239 256 262 271 285 293 303 312 299 298 290 303 317 299 249
342 340 339 337 333 331 329 329 327 324 320 315 315 315 324 327 27 147 5 34 41 99 30 133 258 251 247 251 267 256 242 239 247 255 273 277 286 290 292 257 273 288 302 309 309
338 335 332 331 328 326 326 325 327 328 324 317 313 318 341 317 262 329 14 70 62 9 337 299 267 262 235 239 240 255 267 269 261 249 245 261 268 272 275 281 269 278 289 299 312
340 333 327 326 323 319 317 319 322 326 322 314 308 317 324 280 333 360 12 19 343 324 312 322 328 310 313 303 293 299 288 278 272 266 266 249 255 261 262 272 277 272 277 284 294
344 337 329 324 319 313 307 308 316 323 321 313 310 318 284 233 327 304 316 318 302 304 290 301 322 343 326 327 311 320 321 306 278 280 274 293 279 244 249 255 258 271 269 275 283
341 341 334 326 320 314 306 300 311 323 312 293 312 317 264 143 268 255 302 301 284 280 298 294 285 293 281 276 288 297 279 279 271 280 283 263 271 272 276 246 240 245 255 270 272
339 339 337 330 324 318 314 303 309 320 316 300 274 321 277 212 165 323 296 308 316 295 288 273 238 255 277 272 308 258 270 275 287 255 277 263 266 262 265 269 252 235 237 245 264
339 341 339 333 325 325 334 323 313 304 255 301 212 279 267 272 351 330 266 307 300 292 280 246 227 196 261 200 235 249 260 266 267 277 257 263 270 275 278 252 255 257 234 235 243
341 342 343 347 349 2 13 27 351 55 318 242 271 243 297 13 346 296 152 315 303 265 294 330 355 257 241 242 255 290 299 295 303 324 326 302 292 294 305 299 304 261 244 234 232
342 344 348 9 31 18 8 18 16 330 307 277 257 257 279 311 287 291 319 280 325 295 304 319 232 250 313 322 322 317 306 301 303 297 289 307 300 294 297 291 293 293 282 238 233
343 344 340 352 348 12 5 4 352 330 293 305 215 215 224 191 256 271 320 313 317 333 326 323 295 321 320 316 313 281 271 290 286 289 282 301 287 295 294 288 287 287 287 278 234
341 343 329 345 337 340 349 342 335 319 298 172 176 175 201 227 240 218 204 77 298 299 313 292 292 300 342 327 321 305 316 311 300 283 274 226 277 261 290 294 294 294 294 280 278
338 340 353 357 7 22 353 332 324 73 48 177 124 175 236 218 261 130 167 190 251 270 279 260 283 281 274 298 355 311 333 304 300 285 313 282 281 285 298 290 292 288 288 290 278
342 341 169 327 339 354 326 312 308 322 281 137 152 191 223 267 295 204 192 233 253 242 240 247 257 52 70 6 320 315 338 310 287 273 266 276 253 273 272 274 271 278 282 286 288
349 358 56 15 351 339 333 332 358 218 213 39 354 353 334 285 276 209 238 277 254 291 353 350 335 118 92 356 284 341 6 338 328 315 269 280 281 272 274 294 296 298 295 297 293
10 41 62 297 3 332 339 326 308 310 29 360 348 306 267 255 18 239 248 266 311 54 3 275 330 318 35 224 236 276 200 210 252 268 280 295 257 277 279 284 285 282 294 290 285
352 335 354 8 341 316 357 9 231 24 14 350 323 315 360 63 338 344 345 326 31 44 34 348 311 325 323 322 321 280 265 263 288 286 287 252 266 274 349 9 350 345 340 335 333
40 34 93 302 337 21 4 273 352 40 15 343 323 15 346 337 341 353 353 2 17 36 60 314 306 289 317 329 305 245 287 324 4 315 290 291 287 290 9 354 348 344 339 327 324
4 339 268 342 347 318 260 312 5 348 347 351 337 319 329 313 349 334 328 309 22 356 356 9 25 304 314 288 325 5 356 41 180 241 246 275 284 90 50 16 336 331 329 325 330
26 308 358 31 267 292 0 325 335 317 334 312 226 277 295 324 325 316 294 348 356 17 6 19 266 292 298 288 138 162 235 244 219 217 263 233 268 122 122 65 21 324 327 324 322
351 277 66 358 38 337 309 350 317 353 13 318 292 336 338 317 305 318 328 318 16 0 5 21 310 318 307 129 176 203 242 241 237 241 239 283 271 241 67 25 20 5 326 325 318
353 349 11 334 9 358 344 314 324 305 272 283 273 285 289 256 280 259 289 298 321 293 344 256 215 218 256 269 274 281 285 282 181 229 276 271 306 13 40 2 36 11 322 334 318
10 9 16 304 334 311 284 286 296 328 9 1 343 325 302 305 317 296 283 303 291 296 181 180 246 258 275 283 286 286 291 298 299 242 251 314 280 354 127 280 85 329 310 294 305
21 355 333 300 293 290 279 321 333 322 348 318 294 345 346 320 296 313 311 317 275 270 230 145 266 307 294 286 268 268 271 259 281 331 351 315 314 3 32 311 274 269 289 287 285
357 320 307 283 300 330 340 332 309 316 317 310 310 312 305 289 299 304 299 285 257 270 267 209 201 10 263 310 304 291 59 4 320 341 335 297 331 340 333 318 317 318 312 315 331